GLO7473 SMJP-SBBE

Flight info

Callsign GLO7473
Flight time 1h 31m
Altitude 37000
Route DCT ZY DCT VILAS UG449 OTONI UZ41 KOGVU
Aircraft B38M/M-DFGHIJ4J7KLORWXY/LB1

Departure

Time 2026-04-22 11:54
Airport Johan Adolf Pengel International Airport (SMJP)

Arrival

Time 2026-04-22 13:25
Airport Val de Cans/Júlio Cezar Ribeiro International Airport (SBBE)
Time Latitude Longitude Altitude Speed Heading
2026-04-22 11:31 5.45521 -55.20039 60 ft 0 kts
2026-04-22 11:45 5.45516 -55.20039 62 ft 3 kts
2026-04-22 11:45 5.45488 -55.20039 55 ft 4 kts
2026-04-22 11:46 5.45464 -55.20038 56 ft 4 kts 348°
2026-04-22 11:46 5.45447 -55.20026 58 ft 4 kts 287°
2026-04-22 11:46 5.45445 -55.20005 60 ft 1 kts 269°
2026-04-22 11:46 5.45445 -55.20001 60 ft 0 kts 269°
2026-04-22 11:52 5.45445 -55.20008 61 ft 5 kts 269°
2026-04-22 11:52 5.45443 -55.20097 63 ft 20 kts 273°
2026-04-22 11:52 5.45444 -55.20246 62 ft 22 kts 268°
2026-04-22 11:52 5.45394 -55.20350 58 ft 18 kts 189°
2026-04-22 11:53 5.45283 -55.20318 56 ft 14 kts 125°
2026-04-22 11:53 5.45278 -55.20289 59 ft 0 kts 90°
2026-04-22 11:53 5.45279 -55.20185 59 ft 47 kts 88°
2026-04-22 11:53 5.45284 -55.19561 61 ft 129 kts 89°
2026-04-22 11:54 5.45295 -55.18438 168 ft 185 kts 89°
2026-04-22 11:54 5.45288 -55.17102 869 ft 200 kts 90°
2026-04-22 11:54 5.45303 -55.15651 1528 ft 222 kts 89°
2026-04-22 11:54 5.45165 -55.14064 2470 ft 232 kts 108°
2026-04-22 11:55 5.44401 -55.12587 3400 ft 249 kts 126°
2026-04-22 11:55 5.43148 -55.11306 4354 ft 260 kts 137°
2026-04-22 11:55 5.41782 -55.10098 5469 ft 265 kts 137°
2026-04-22 11:55 5.40382 -55.08852 6465 ft 273 kts 137°
2026-04-22 11:56 5.38942 -55.07571 7435 ft 278 kts 137°
2026-04-22 11:56 5.37483 -55.06272 8432 ft 283 kts 137°
2026-04-22 11:56 5.35994 -55.04947 9408 ft 289 kts 137°
2026-04-22 11:56 5.34479 -55.03597 10317 ft 296 kts 137°
2026-04-22 11:57 5.32896 -55.02185 10879 ft 314 kts 137°
2026-04-22 11:57 5.31227 -55.00695 11497 ft 327 kts 137°
2026-04-22 11:57 5.29510 -54.99163 12257 ft 333 kts 138°
2026-04-22 11:57 5.27798 -54.97640 13059 ft 339 kts 139°
2026-04-22 11:58 5.25997 -54.96037 13874 ft 344 kts 139°
2026-04-22 11:58 5.24195 -54.94434 14580 ft 349 kts 139°
2026-04-22 11:58 5.22371 -54.92811 15309 ft 351 kts 139°
2026-04-22 11:58 5.20533 -54.91177 16009 ft 356 kts 139°
2026-04-22 11:59 5.18667 -54.89517 16667 ft 360 kts 139°
2026-04-22 11:59 5.16783 -54.87842 17341 ft 364 kts 139°
2026-04-22 11:59 5.14880 -54.86150 18018 ft 367 kts 139°
2026-04-22 11:59 5.12955 -54.84439 18613 ft 371 kts 139°
2026-04-22 12:00 5.11013 -54.82713 19154 ft 374 kts 139°
2026-04-22 12:00 5.09059 -54.80975 19698 ft 378 kts 139°
2026-04-22 12:00 5.07078 -54.79215 20234 ft 381 kts 139°
2026-04-22 12:00 5.05081 -54.77440 20761 ft 384 kts 139°
2026-04-22 12:01 5.03100 -54.75680 21283 ft 387 kts 139°
2026-04-22 12:01 5.01081 -54.73885 21785 ft 390 kts 138°
2026-04-22 12:01 4.99033 -54.72066 22309 ft 393 kts 138°
2026-04-22 12:01 4.96979 -54.70241 22814 ft 396 kts 138°
2026-04-22 12:02 4.94905 -54.68399 23263 ft 400 kts 138°
2026-04-22 12:02 4.92812 -54.66540 23686 ft 404 kts 138°
2026-04-22 12:02 4.90702 -54.64666 24083 ft 406 kts 138°
2026-04-22 12:02 4.88581 -54.62782 24566 ft 406 kts 138°
2026-04-22 12:03 4.86464 -54.60903 25009 ft 407 kts 138°
2026-04-22 12:03 4.84338 -54.59015 25476 ft 408 kts 138°
2026-04-22 12:03 4.82213 -54.57128 25941 ft 408 kts 138°
2026-04-22 12:03 4.80094 -54.55247 26397 ft 409 kts 138°
2026-04-22 12:04 4.77956 -54.53350 26777 ft 412 kts 138°
2026-04-22 12:04 4.75827 -54.51461 27171 ft 413 kts 138°
2026-04-22 12:04 4.73638 -54.49518 27578 ft 415 kts 138°
2026-04-22 12:04 4.71549 -54.47664 27955 ft 417 kts 138°
2026-04-22 12:05 4.69390 -54.45749 28345 ft 419 kts 138°
2026-04-22 12:05 4.67202 -54.43800 28731 ft 420 kts 136°
2026-04-22 12:05 4.65096 -54.41745 29100 ft 422 kts 135°
2026-04-22 12:05 4.62985 -54.39684 29438 ft 425 kts 135°
2026-04-22 12:06 4.60855 -54.37616 29776 ft 427 kts 135°
2026-04-22 12:06 4.58718 -54.35544 30126 ft 428 kts 135°
2026-04-22 12:06 4.56572 -54.33465 30407 ft 430 kts 135°
2026-04-22 12:06 4.54413 -54.31372 30709 ft 432 kts 135°
2026-04-22 12:07 4.52241 -54.29268 30995 ft 434 kts 135°
2026-04-22 12:07 4.50069 -54.27164 31279 ft 435 kts 135°
2026-04-22 12:07 4.47882 -54.25046 31569 ft 437 kts 135°
2026-04-22 12:07 4.45745 -54.22977 31851 ft 438 kts 135°
2026-04-22 12:08 4.43522 -54.20824 32153 ft 440 kts 135°
2026-04-22 12:08 4.41347 -54.18717 32421 ft 441 kts 135°
2026-04-22 12:08 4.39132 -54.16573 32695 ft 443 kts 135°
2026-04-22 12:08 4.36907 -54.14418 32968 ft 445 kts 135°
2026-04-22 12:09 4.34678 -54.12260 33235 ft 446 kts 135°
2026-04-22 12:09 4.32439 -54.10093 33487 ft 448 kts 135°
2026-04-22 12:09 4.30193 -54.07919 33756 ft 449 kts 135°
2026-04-22 12:09 4.27942 -54.05741 34067 ft 449 kts 135°
2026-04-22 12:10 4.25692 -54.03563 34369 ft 449 kts 135°
2026-04-22 12:10 4.23449 -54.01393 34696 ft 448 kts 135°
2026-04-22 12:10 4.21213 -53.99229 34989 ft 447 kts 136°
2026-04-22 12:10 4.18975 -53.97063 35275 ft 447 kts 136°
2026-04-22 12:11 4.16737 -53.94899 35572 ft 446 kts 136°
2026-04-22 12:11 4.14532 -53.92766 35865 ft 446 kts 136°
2026-04-22 12:11 4.12302 -53.90609 36145 ft 445 kts 136°
2026-04-22 12:11 4.10076 -53.88455 36425 ft 445 kts 136°
2026-04-22 12:12 4.07853 -53.86306 36698 ft 444 kts 136°
2026-04-22 12:12 4.05626 -53.84152 36955 ft 444 kts 136°
2026-04-22 12:12 4.01185 -53.79858 36988 ft 441 kts 136°
2026-04-22 12:13 3.96764 -53.75585 36995 ft 441 kts 136°
2026-04-22 12:13 3.92354 -53.71322 36998 ft 441 kts 136°
2026-04-22 12:14 3.88008 -53.67121 36993 ft 441 kts 136°
2026-04-22 12:14 3.83595 -53.62856 36997 ft 441 kts 136°
2026-04-22 12:15 3.79180 -53.58591 37003 ft 441 kts 136°
2026-04-22 12:15 3.74800 -53.54360 36998 ft 441 kts 136°
2026-04-22 12:16 3.70458 -53.50166 36992 ft 441 kts 136°
2026-04-22 12:16 3.66043 -53.45902 36997 ft 441 kts 136°
2026-04-22 12:17 3.62777 -53.42748 36997 ft 442 kts 136°
2026-04-22 12:17 3.58394 -53.38517 36992 ft 442 kts 136°
2026-04-22 12:18 3.53982 -53.34258 36995 ft 442 kts 136°
2026-04-22 12:18 3.49561 -53.29991 36993 ft 442 kts 136°
2026-04-22 12:19 3.45189 -53.25771 36997 ft 442 kts 136°
2026-04-22 12:19 3.40840 -53.21575 36997 ft 442 kts 136°
2026-04-22 12:20 3.36406 -53.17297 36994 ft 442 kts 136°
2026-04-22 12:20 3.31999 -53.13046 36997 ft 444 kts 136°
2026-04-22 12:21 3.27568 -53.08772 36998 ft 444 kts 136°
2026-04-22 12:21 3.23124 -53.04486 36994 ft 444 kts 136°
2026-04-22 12:22 3.18697 -53.00216 36991 ft 444 kts 136°
2026-04-22 12:22 3.14252 -52.95931 36994 ft 446 kts 136°
2026-04-22 12:23 3.09788 -52.91627 36994 ft 446 kts 136°
2026-04-22 12:23 3.05320 -52.87321 36993 ft 446 kts 136°
2026-04-22 12:24 3.00832 -52.82995 36989 ft 448 kts 136°
2026-04-22 12:24 2.96341 -52.78666 36990 ft 449 kts 136°
2026-04-22 12:25 2.91875 -52.74363 36989 ft 449 kts 136°
2026-04-22 12:25 2.87370 -52.70023 36997 ft 449 kts 136°
2026-04-22 12:26 2.82879 -52.65696 36973 ft 448 kts 136°
2026-04-22 12:26 2.78406 -52.61388 36993 ft 449 kts 136°
2026-04-22 12:27 2.73910 -52.57057 36991 ft 448 kts 136°
2026-04-22 12:27 2.69401 -52.52715 36979 ft 448 kts 136°
2026-04-22 12:28 2.64725 -52.48633 37006 ft 445 kts 142°
2026-04-22 12:28 2.59864 -52.44783 36990 ft 446 kts 141°
2026-04-22 12:29 2.55013 -52.40887 36993 ft 446 kts 141°
2026-04-22 12:29 2.50184 -52.37001 36993 ft 446 kts 141°
2026-04-22 12:30 2.42954 -52.31183 36995 ft 446 kts 141°
2026-04-22 12:31 2.38113 -52.27287 36999 ft 447 kts 141°
2026-04-22 12:31 2.33273 -52.23394 36995 ft 446 kts 141°
2026-04-22 12:32 2.28429 -52.19497 36996 ft 447 kts 141°
2026-04-22 12:32 2.21200 -52.13682 36997 ft 446 kts 141°
2026-04-22 12:33 2.16355 -52.09785 36998 ft 447 kts 141°
2026-04-22 12:33 2.11509 -52.05887 36999 ft 447 kts 141°
2026-04-22 12:34 2.06659 -52.01987 37001 ft 449 kts 141°
2026-04-22 12:34 2.01788 -51.98071 37000 ft 449 kts 141°
2026-04-22 12:35 1.96912 -51.94150 37001 ft 449 kts 141°
2026-04-22 12:35 1.92043 -51.90236 37002 ft 449 kts 141°
2026-04-22 12:36 1.87171 -51.86319 37001 ft 449 kts 141°
2026-04-22 12:36 1.82327 -51.82425 37002 ft 449 kts 141°
2026-04-22 12:37 1.77452 -51.78506 36997 ft 451 kts 141°
2026-04-22 12:37 1.72555 -51.74571 36998 ft 451 kts 141°
2026-04-22 12:38 1.67658 -51.70635 36996 ft 451 kts 141°
2026-04-22 12:38 1.62767 -51.66704 36995 ft 451 kts 141°
2026-04-22 12:39 1.55431 -51.60809 36996 ft 451 kts 141°
2026-04-22 12:40 1.50533 -51.56874 36998 ft 451 kts 140°
2026-04-22 12:40 1.45673 -51.52969 36995 ft 452 kts 141°
2026-04-22 12:41 1.40762 -51.49023 36997 ft 452 kts 141°
2026-04-22 12:41 1.35852 -51.45079 36998 ft 452 kts 141°
2026-04-22 12:42 1.30948 -51.41139 37000 ft 453 kts 141°
2026-04-22 12:42 1.26036 -51.37193 36996 ft 453 kts 141°
2026-04-22 12:43 1.21130 -51.33252 36998 ft 452 kts 140°
2026-04-22 12:43 1.16221 -51.29309 37001 ft 454 kts 140°
2026-04-22 12:44 1.11561 -51.25567 36993 ft 455 kts 140°
2026-04-22 12:44 1.06620 -51.21598 36997 ft 455 kts 140°
2026-04-22 12:45 1.01689 -51.17638 36997 ft 455 kts 140°
2026-04-22 12:45 0.96762 -51.13682 36992 ft 454 kts 140°
2026-04-22 12:46 0.91846 -51.09734 36998 ft 454 kts 140°
2026-04-22 12:46 0.86918 -51.05777 36995 ft 454 kts 141°
2026-04-22 12:47 0.81982 -51.01813 36993 ft 455 kts 140°
2026-04-22 12:47 0.77075 -50.97873 36987 ft 455 kts 141°
2026-04-22 12:48 0.72163 -50.93878 36989 ft 455 kts 140°
2026-04-22 12:48 0.67248 -50.89877 36992 ft 455 kts 140°
2026-04-22 12:49 0.62346 -50.85886 36983 ft 456 kts 140°
2026-04-22 12:49 0.57400 -50.81860 36994 ft 458 kts 140°
2026-04-22 12:50 0.52452 -50.77832 36997 ft 458 kts 140°
2026-04-22 12:50 0.47541 -50.73835 36994 ft 458 kts 140°
2026-04-22 12:51 0.42600 -50.69813 36992 ft 458 kts 140°
2026-04-22 12:51 0.37661 -50.65792 36992 ft 458 kts 140°
2026-04-22 12:52 0.32721 -50.61771 36991 ft 458 kts 140°
2026-04-22 12:52 0.27765 -50.57738 36998 ft 458 kts 140°
2026-04-22 12:53 0.22882 -50.53763 36991 ft 455 kts 140°
2026-04-22 12:53 0.17978 -50.49771 36994 ft 455 kts 140°
2026-04-22 12:54 0.13067 -50.45774 36987 ft 455 kts 140°
2026-04-22 12:54 0.08126 -50.41752 36989 ft 455 kts 140°
2026-04-22 12:55 0.04042 -50.38428 36992 ft 456 kts 140°
2026-04-22 12:55 -0.01688 -50.33764 36999 ft 456 kts 140°
2026-04-22 12:56 -0.06595 -50.29770 36936 ft 450 kts 140°
2026-04-22 12:56 -0.09000 -50.27812 36516 ft 444 kts 140°
2026-04-22 12:56 -0.11390 -50.25868 35913 ft 443 kts 140°
2026-04-22 12:56 -0.13786 -50.23917 35312 ft 443 kts 140°
2026-04-22 12:57 -0.16135 -50.22006 34814 ft 440 kts 140°
2026-04-22 12:57 -0.18510 -50.20073 34317 ft 438 kts 140°
2026-04-22 12:57 -0.20867 -50.18154 33770 ft 436 kts 140°
2026-04-22 12:57 -0.23213 -50.16244 33204 ft 434 kts 140°
2026-04-22 12:58 -0.25360 -50.14497 32726 ft 432 kts 140°
2026-04-22 12:58 -0.27660 -50.12626 32250 ft 428 kts 140°
2026-04-22 12:58 -0.29923 -50.10783 31772 ft 426 kts 140°
2026-04-22 12:58 -0.32220 -50.08913 31277 ft 423 kts 140°
2026-04-22 12:59 -0.34495 -50.07061 30854 ft 420 kts 140°
2026-04-22 12:59 -0.36745 -50.05230 30468 ft 416 kts 140°
2026-04-22 12:59 -0.38976 -50.03413 30034 ft 413 kts 140°
2026-04-22 12:59 -0.41205 -50.01599 29469 ft 412 kts 140°
2026-04-22 13:00 -0.43422 -49.99795 28954 ft 410 kts 140°
2026-04-22 13:00 -0.45598 -49.98024 28518 ft 407 kts 140°
2026-04-22 13:00 -0.47780 -49.96248 28083 ft 403 kts 140°
2026-04-22 13:00 -0.49947 -49.94483 27645 ft 401 kts 140°
2026-04-22 13:01 -0.52098 -49.92731 27214 ft 398 kts 140°
2026-04-22 13:01 -0.54243 -49.90986 26782 ft 396 kts 140°
2026-04-22 13:01 -0.56372 -49.89254 26359 ft 394 kts 140°
2026-04-22 13:01 -0.58489 -49.87530 25943 ft 391 kts 140°
2026-04-22 13:02 -0.60592 -49.85818 25532 ft 390 kts 140°
2026-04-22 13:02 -0.62695 -49.84107 25124 ft 388 kts 140°
2026-04-22 13:02 -0.64790 -49.82401 24673 ft 388 kts 141°
2026-04-22 13:02 -0.66885 -49.80696 24264 ft 388 kts 141°
2026-04-22 13:03 -0.68974 -49.78996 23870 ft 386 kts 141°
2026-04-22 13:03 -0.70350 -49.77876 23615 ft 385 kts 141°
2026-04-22 13:03 -0.73104 -49.75634 22997 ft 384 kts 141°
2026-04-22 13:03 -0.75165 -49.73957 22602 ft 381 kts 141°
2026-04-22 13:04 -0.77211 -49.72291 22211 ft 378 kts 141°
2026-04-22 13:04 -0.79241 -49.70639 21832 ft 375 kts 141°
2026-04-22 13:04 -0.81251 -49.68987 21439 ft 372 kts 138°
2026-04-22 13:04 -0.82423 -49.67683 21119 ft 372 kts 124°
2026-04-22 13:05 -0.83813 -49.65522 20752 ft 369 kts 123°
2026-04-22 13:05 -0.85203 -49.63413 20416 ft 366 kts 123°
2026-04-22 13:05 -0.86589 -49.61295 20048 ft 364 kts 123°
2026-04-22 13:05 -0.87967 -49.59177 19683 ft 362 kts 123°
2026-04-22 13:06 -0.89334 -49.57075 19310 ft 360 kts 123°
2026-04-22 13:06 -0.90630 -49.55079 18965 ft 358 kts 123°
2026-04-22 13:06 -0.91983 -49.52995 18599 ft 357 kts 123°
2026-04-22 13:06 -0.93334 -49.50915 18234 ft 355 kts 123°
2026-04-22 13:07 -0.94671 -49.48855 17827 ft 354 kts 123°
2026-04-22 13:07 -0.96009 -49.46794 17452 ft 351 kts 123°
2026-04-22 13:07 -0.97330 -49.44759 17096 ft 348 kts 123°
2026-04-22 13:07 -0.98644 -49.42734 16747 ft 345 kts 123°
2026-04-22 13:08 -0.99945 -49.40729 16380 ft 343 kts 123°
2026-04-22 13:08 -1.01237 -49.38738 16029 ft 340 kts 123°
2026-04-22 13:08 -1.02525 -49.36756 15681 ft 338 kts 123°
2026-04-22 13:08 -1.03781 -49.34820 15341 ft 336 kts 123°
2026-04-22 13:09 -1.05044 -49.32873 15001 ft 333 kts 123°
2026-04-22 13:09 -1.06307 -49.30928 14657 ft 331 kts 123°
2026-04-22 13:09 -1.07559 -49.28999 14319 ft 330 kts 123°
2026-04-22 13:09 -1.08800 -49.27087 13982 ft 328 kts 123°
2026-04-22 13:10 -1.09966 -49.25290 13643 ft 326 kts 122°
2026-04-22 13:10 -1.11202 -49.23386 13270 ft 325 kts 123°
2026-04-22 13:10 -1.12428 -49.21498 12921 ft 322 kts 123°
2026-04-22 13:10 -1.13638 -49.19632 12588 ft 319 kts 123°
2026-04-22 13:11 -1.14846 -49.17771 12255 ft 317 kts 123°
2026-04-22 13:11 -1.16041 -49.15930 11931 ft 314 kts 123°
2026-04-22 13:11 -1.17219 -49.14113 11603 ft 312 kts 123°
2026-04-22 13:11 -1.18395 -49.12301 11275 ft 309 kts 123°
2026-04-22 13:12 -1.19563 -49.10497 10922 ft 308 kts 123°
2026-04-22 13:12 -1.20709 -49.08729 10626 ft 306 kts 123°
2026-04-22 13:12 -1.21863 -49.06947 10303 ft 304 kts 123°
2026-04-22 13:12 -1.23001 -49.05191 10110 ft 298 kts 123°
2026-04-22 13:13 -1.24114 -49.03473 9957 ft 290 kts 123°
2026-04-22 13:13 -1.25192 -49.01808 9646 ft 283 kts 123°
2026-04-22 13:13 -1.26258 -49.00163 9325 ft 281 kts 123°
2026-04-22 13:13 -1.27315 -48.98530 9018 ft 279 kts 123°
2026-04-22 13:14 -1.28366 -48.96907 8719 ft 277 kts 123°
2026-04-22 13:14 -1.29411 -48.95295 8417 ft 275 kts 123°
2026-04-22 13:14 -1.30443 -48.93701 8129 ft 273 kts 123°
2026-04-22 13:14 -1.31475 -48.92108 7836 ft 271 kts 123°
2026-04-22 13:15 -1.32493 -48.90536 7553 ft 269 kts 123°
2026-04-22 13:15 -1.33506 -48.88971 7250 ft 267 kts 123°
2026-04-22 13:15 -1.34511 -48.87420 6986 ft 265 kts 122°
2026-04-22 13:15 -1.35514 -48.85872 6703 ft 264 kts 122°
2026-04-22 13:16 -1.36500 -48.84349 6414 ft 263 kts 122°
2026-04-22 13:16 -1.37484 -48.82829 6117 ft 262 kts 122°
2026-04-22 13:16 -1.38473 -48.81303 5832 ft 261 kts 122°
2026-04-22 13:16 -1.39456 -48.79784 5535 ft 260 kts 122°
2026-04-22 13:17 -1.40434 -48.78273 5251 ft 257 kts 122°
2026-04-22 13:17 -1.41392 -48.76794 5125 ft 249 kts 122°
2026-04-22 13:17 -1.42318 -48.75364 5008 ft 241 kts 122°
2026-04-22 13:17 -1.43222 -48.73974 4846 ft 235 kts 122°
2026-04-22 13:18 -1.44102 -48.72623 4670 ft 229 kts 122°
2026-04-22 13:18 -1.44961 -48.71305 4507 ft 222 kts 122°
2026-04-22 13:18 -1.45794 -48.70024 4369 ft 219 kts 122°
2026-04-22 13:18 -1.46539 -48.68702 4229 ft 219 kts 114°
2026-04-22 13:19 -1.47178 -48.67338 4117 ft 217 kts 115°
2026-04-22 13:19 -1.47812 -48.66005 4017 ft 208 kts 115°
2026-04-22 13:19 -1.48426 -48.64725 3857 ft 201 kts 115°
2026-04-22 13:19 -1.49026 -48.63483 3701 ft 196 kts 115°
2026-04-22 13:20 -1.49621 -48.62257 3562 ft 195 kts 114°
2026-04-22 13:20 -1.50003 -48.61007 3396 ft 185 kts 90°
2026-04-22 13:20 -1.49669 -48.59829 3123 ft 174 kts 62°
2026-04-22 13:20 -1.48963 -48.58845 2861 ft 174 kts 52°
2026-04-22 13:21 -1.48137 -48.57965 2617 ft 173 kts 49°
2026-04-22 13:21 -1.47297 -48.57111 2374 ft 171 kts 48°
2026-04-22 13:21 -1.46504 -48.56310 2146 ft 153 kts 48°
2026-04-22 13:21 -1.45773 -48.55566 1996 ft 148 kts 48°
2026-04-22 13:22 -1.45070 -48.54853 1813 ft 147 kts 48°
2026-04-22 13:22 -1.44355 -48.54125 1638 ft 149 kts 46°
2026-04-22 13:22 -1.43611 -48.53371 1418 ft 156 kts 47°
2026-04-22 13:22 -1.42833 -48.52580 1184 ft 165 kts 47°
2026-04-22 13:23 -1.42020 -48.51758 934 ft 167 kts 47°
2026-04-22 13:23 -1.41273 -48.50999 715 ft 161 kts 47°
2026-04-22 13:23 -1.40502 -48.50219 523 ft 152 kts 46°
2026-04-22 13:23 -1.39803 -48.49525 352 ft 152 kts 46°
2026-04-22 13:24 -1.39159 -48.48866 210 ft 141 kts 49°
2026-04-22 13:24 -1.38514 -48.48208 88 ft 141 kts 46°
2026-04-22 13:24 -1.37923 -48.47616 64 ft 86 kts 45°
2026-04-22 13:24 -1.37625 -48.47315 63 ft 53 kts 45°
2026-04-22 13:25 -1.37364 -48.47054 64 ft 52 kts 46°
2026-04-22 13:25 -1.37125 -48.46816 63 ft 38 kts 44°
2026-04-22 13:25 -1.37021 -48.46755 63 ft 10 kts 56°
2026-04-22 13:25 -1.37069 -48.46723 57 ft 14 kts 226°
2026-04-22 13:26 -1.37141 -48.46811 65 ft 22 kts 230°
2026-04-22 13:26 -1.37265 -48.46944 65 ft 30 kts 228°
2026-04-22 13:26 -1.37386 -48.47073 65 ft 24 kts 224°
2026-04-22 13:26 -1.37510 -48.47200 66 ft 27 kts 224°
2026-04-22 13:27 -1.37630 -48.47323 60 ft 25 kts 226°
2026-04-22 13:27 -1.37759 -48.47451 62 ft 27 kts 225°
2026-04-22 13:27 -1.37883 -48.47575 64 ft 24 kts 224°
2026-04-22 13:27 -1.38024 -48.47622 64 ft 22 kts 183°
2026-04-22 13:28 -1.38175 -48.47640 67 ft 22 kts 185°
2026-04-22 13:28 -1.38330 -48.47654 59 ft 24 kts 185°
2026-04-22 13:28 -1.38498 -48.47669 68 ft 25 kts 184°
2026-04-22 13:28 -1.38641 -48.47687 69 ft 16 kts 208°
2026-04-22 13:29 -1.38678 -48.47788 66 ft 15 kts 227°
2026-04-22 13:29 -1.38775 -48.47801 67 ft 15 kts 184°
2026-04-22 13:29 -1.38885 -48.47812 67 ft 17 kts 184°
2026-04-22 13:29 -1.39005 -48.47820 67 ft 16 kts 184°
2026-04-22 13:30 -1.39043 -48.47858 67 ft 8 kts 272°
2026-04-22 13:30 -1.39041 -48.47887 67 ft 2 kts 274°
2026-04-22 13:30 -1.39041 -48.47888 67 ft 0 kts 274°